{"data":{"norad_id":43613,"epoch":"2026-05-25T04:07:30.589248Z","epoch_age_seconds":74260,"freshness":"FRESH","line1":"1 43613U 18070A   26145.17188182  .00009058  00000+0  32868-3 0  9998","line2":"2 43613  92.0051 284.7660 0003188 123.1538 237.0018 15.28298162428944","mean_motion":15.28298162,"eccentricity":0.0003188,"inclination_deg":92.0051,"raan_deg":284.766,"arg_perigee_deg":123.1538,"mean_anomaly_deg":237.0018,"bstar":0.00032868,"rev_number":42894,"period_min":94.222451862112,"perigee_km":478.712841953,"apogee_km":483.08616362718,"semimajor_km":6859.0365027901,"source":"CELESTRAK","updated_at":"2026-05-25T13:38:12.830907Z"}}